Location: Unspecified
(0.0000°N, 0.0000°E)
Time: 17:03:33
(UTC+00:00)

Hubble Space Telescope - Pass Details

Date: 14 December 2018
Orbit: 537 x 540 km, 28.5° (Epoch: 11 December)

Event Time Altitude Azimuth Distance (km) Brightness Sun altitude
Exits shadow 05:01:45 - 343° (NNW) 2,005 3.3 -12.1°
Reaches altitude 10° 05:02:40 10° 352° (N) 1,779 3.1 -11.9°
Maximum altitude 05:05:04 15° 28° (NNE) 1,488 3.1 -11.3°
Drops below altitude 10° 05:07:28 10° 64° (ENE) 1,781 4.0 -10.8°
Sets 05:10:33 0° 88° (E) 2,672 5.6 -10.1°
